When you browse on this site, cookies collect data to enhance your experience and personalize the content and advertising you see.
Visit our Privacy Policy to learn more. By continuing to use the site, you agree to this use of cookies and data.
  • En España
  • Lista de países
  • Para 7 días
  • Temperatura del agua
  • Mapa Satelital
  • El tiempo en el mapa
  • Informadores
  • user-avatar
    Iniciar sesión

    Tiempo cada hora Ankona

    Hoy, 21 Junio, Viernes

    Tiempo Temperatura Precipitaciones Viento Presión Humedad
    00:00 +22°C° 0 mm 3 mps 756 mmHg 69%
    01:00 +22°C° 0 mm 3 mps 756 mmHg 67%
    02:00 +21°C° 0 mm 3 mps 756 mmHg 64%
    03:00 +21°C° 0 mm 3 mps 756 mmHg 61%
    04:00 +21°C° 0 mm 3 mps 756 mmHg 57%
    05:00 +23°C° 0 mm 2 mps 757 mmHg 57%
    06:00 +24°C° 0 mm 2 mps 757 mmHg 57%
    07:00 +25°C° 0 mm 2 mps 757 mmHg 57%
    08:00 +27°C° 0 mm 1 mps 757 mmHg 54%
    09:00 +28°C° 0 mm 1 mps 757 mmHg 50%
    10:00 +30°C° 0 mm 1 mps 758 mmHg 46%
    11:00 +30°C° 0 mm 2 mps 757 mmHg 46%
    12:00 +31°C° 0 mm 2 mps 757 mmHg 46%
    13:00 +33°C° 0 mm 3 mps 757 mmHg 47%
    14:00 +31°C° 0 mm 3 mps 757 mmHg 50%
    15:00 +31°C° 0 mm 3 mps 757 mmHg 54%
    16:00 +30°C° 0 mm 4 mps 757 mmHg 58%
    17:00 +29°C° 0 mm 4 mps 756 mmHg 64%
    18:00 +28°C° 0 mm 4 mps 756 mmHg 69%
    19:00 +26°C° 0 mm 4 mps 756 mmHg 75%
    20:00 +26°C° 0 mm 4 mps 757 mmHg 77%
    21:00 +25°C° 0 mm 3 mps 757 mmHg 78%
    22:00 +24°C° 0 mm 3 mps 757 mmHg 79%
    23:00 +24°C° 0 mm 3 mps 757 mmHg 79%

    Mañana, 22 Junio, Sábado

    Tiempo Temperatura Precipitaciones Viento Presión Humedad
    00:00 +24°C° 0 mm 3 mps 757 mmHg 80%
    01:00 +23°C° 0 mm 2 mps 757 mmHg 80%
    02:00 +23°C° 0 mm 2 mps 756 mmHg 78%
    03:00 +23°C° 0 mm 2 mps 756 mmHg 77%
    04:00 +23°C° 0 mm 2 mps 756 mmHg 75%
    05:00 +24°C° 0 mm 2 mps 756 mmHg 72%
    06:00 +25°C° 0 mm 2 mps 756 mmHg 69%
    07:00 +26°C° 0 mm 2 mps 756 mmHg 66%
    08:00 +28°C° 0 mm 3 mps 756 mmHg 63%
    09:00 +29°C° 0 mm 3 mps 756 mmHg 60%
    10:00 +30°C° 0 mm 4 mps 756 mmHg 57%
    11:00 +32°C° 0 mm 4 mps 756 mmHg 55%
    12:00 +33°C° 0 mm 4 mps 756 mmHg 52%
    13:00 +34°C° 0 mm 4 mps 756 mmHg 49%
    14:00 +34°C° 0 mm 4 mps 755 mmHg 49%
    15:00 +34°C° 0 mm 4 mps 755 mmHg 49%
    16:00 +34°C° 0 mm 4 mps 755 mmHg 48%
    17:00 +31°C° 0 mm 3 mps 755 mmHg 56%
    18:00 +30°C° 0 mm 3 mps 755 mmHg 63%
    19:00 +28°C° 0 mm 2 mps 755 mmHg 71%
    20:00 +27°C° 0 mm 2 mps 755 mmHg 72%
    21:00 +26°C° 0 mm 3 mps 755 mmHg 72%
    22:00 +25°C° 0 mm 3 mps 755 mmHg 73%
    23:00 +24°C° 0 mm 3 mps 755 mmHg 75%

    Pasado mañana, 23 Junio, Domingo

    Tiempo Temperatura Precipitaciones Viento Presión Humedad
    00:00 +23°C° 0 mm 4 mps 755 mmHg 77%
    01:00 +22°C° 0 mm 4 mps 755 mmHg 78%
    02:00 +22°C° 0 mm 4 mps 755 mmHg 81%
    03:00 +21°C° 0 mm 4 mps 755 mmHg 83%
    04:00 +21°C° 0 mm 3 mps 755 mmHg 85%
    05:00 +22°C° 0 mm 3 mps 755 mmHg 81%
    06:00 +24°C° 0 mm 3 mps 755 mmHg 77%
    07:00 +26°C° 0 mm 3 mps 755 mmHg 73%
    08:00 +27°C° 0 mm 4 mps 756 mmHg 66%
    09:00 +28°C° 0 mm 4 mps 756 mmHg 59%
    10:00 +29°C° 0 mm 4 mps 756 mmHg 52%
    11:00 +30°C° 0 mm 5 mps 756 mmHg 53%
    12:00 +30°C° 0 mm 5 mps 756 mmHg 54%
    13:00 +30°C° 0 mm 5 mps 756 mmHg 54%
    14:00 +30°C° 0 mm 5 mps 756 mmHg 55%
    15:00 +30°C° 0 mm 4 mps 756 mmHg 57%
    16:00 +29°C° 0 mm 3 mps 756 mmHg 58%
    17:00 +28°C° 0 mm 2 mps 756 mmHg 63%
    18:00 +27°C° 0 mm 1 mps 756 mmHg 68%
    19:00 +27°C° 0 mm 1 mps 756 mmHg 73%
    20:00 +26°C° 0 mm 1 mps 757 mmHg 75%
    21:00 +24°C° 0 mm 1 mps 757 mmHg 78%
    22:00 +23°C° 0 mm 2 mps 757 mmHg 80%
    23:00 +23°C° 0 mm 2 mps 757 mmHg 81%

    24 Junio, Lunes

    Tiempo Temperatura Precipitaciones Viento Presión Humedad
    00:00 +23°C° 0 mm 2 mps 758 mmHg 81%
    01:00 +23°C° 0 mm 2 mps 758 mmHg 82%
    02:00 +22°C° 0 mm 3 mps 758 mmHg 82%
    03:00 +21°C° 0 mm 3 mps 758 mmHg 83%
    04:00 +21°C° 0 mm 3 mps 758 mmHg 83%
    05:00 +22°C° 0 mm 4 mps 758 mmHg 80%
    06:00 +25°C° 0 mm 5 mps 758 mmHg 77%
    07:00 +26°C° 0 mm 5 mps 759 mmHg 74%
    08:00 +27°C° 0 mm 5 mps 759 mmHg 71%
    09:00 +28°C° 0 mm 5 mps 759 mmHg 67%
    10:00 +29°C° 0 mm 6 mps 759 mmHg 64%
    11:00 +29°C° 0 mm 6 mps 759 mmHg 63%
    12:00 +29°C° 0 mm 6 mps 759 mmHg 62%
    13:00 +29°C° 0 mm 6 mps 759 mmHg 62%
    14:00 +29°C° 0 mm 5 mps 759 mmHg 60%
    15:00 +30°C° 0 mm 5 mps 759 mmHg 58%
    16:00 +30°C° 0 mm 4 mps 759 mmHg 56%
    17:00 +29°C° 0 mm 4 mps 759 mmHg 61%
    18:00 +28°C° 0 mm 4 mps 759 mmHg 67%
    19:00 +27°C° 0 mm 4 mps 759 mmHg 72%
    20:00 +26°C° 0 mm 4 mps 759 mmHg 73%
    21:00 +25°C° 0 mm 4 mps 760 mmHg 73%
    22:00 +23°C° 0 mm 4 mps 760 mmHg 74%
    23:00 +23°C° 0 mm 4 mps 760 mmHg 74%

    25 Junio, Martes

    Tiempo Temperatura Precipitaciones Viento Presión Humedad
    00:00 +23°C° 0 mm 4 mps 760 mmHg 73%
    01:00 +23°C° 0 mm 4 mps 760 mmHg 73%
    02:00 +22°C° 0 mm 4 mps 760 mmHg 77%
    03:00 +22°C° 0 mm 4 mps 760 mmHg 81%
    04:00 +22°C° 0 mm 4 mps 760 mmHg 85%
    05:00 +23°C° 0 mm 4 mps 760 mmHg 82%
    06:00 +25°C° 0 mm 4 mps 760 mmHg 79%
    07:00 +27°C° 0 mm 4 mps 761 mmHg 76%
    08:00 +28°C° 0 mm 4 mps 761 mmHg 74%
    09:00 +28°C° 0 mm 4 mps 761 mmHg 71%
    10:00 +29°C° 0 mm 5 mps 761 mmHg 68%
    11:00 +30°C° 0 mm 5 mps 761 mmHg 66%
    12:00 +30°C° 0 mm 5 mps 761 mmHg 63%
    13:00 +32°C° 0 mm 5 mps 761 mmHg 61%
    14:00 +32°C° 0 mm 5 mps 760 mmHg 60%
    15:00 +32°C° 0 mm 5 mps 760 mmHg 58%
    16:00 +32°C° 0 mm 4 mps 760 mmHg 57%
    17:00 +30°C° 0 mm 4 mps 760 mmHg 63%
    18:00 +28°C° 0 mm 4 mps 760 mmHg 69%
    19:00 +27°C° 0 mm 4 mps 760 mmHg 75%
    20:00 +26°C° 0 mm 3 mps 760 mmHg 78%
    21:00 +25°C° 0 mm 3 mps 760 mmHg 82%
    22:00 +24°C° 0 mm 3 mps 761 mmHg 85%
    23:00 +23°C° 0 mm 4 mps 760 mmHg 82%

    26 Junio, Miércoles

    Tiempo Temperatura Precipitaciones Viento Presión Humedad
    00:00 +23°C° 0 mm 4 mps 760 mmHg 79%
    01:00 +23°C° 0 mm 4 mps 760 mmHg 76%
    02:00 +23°C° 0 mm 4 mps 760 mmHg 74%
    03:00 +23°C° 0 mm 4 mps 760 mmHg 73%
    04:00 +23°C° 0 mm 5 mps 760 mmHg 71%
    05:00 +25°C° 0 mm 5 mps 760 mmHg 72%
    06:00 +26°C° 0 mm 5 mps 760 mmHg 73%
    07:00 +27°C° 0 mm 5 mps 760 mmHg 74%
    08:00 +28°C° 0 mm 5 mps 760 mmHg 70%
    09:00 +29°C° 0 mm 6 mps 760 mmHg 67%
    10:00 +30°C° 0 mm 6 mps 760 mmHg 63%
    11:00 +32°C° 0 mm 5 mps 759 mmHg 62%
    12:00 +32°C° 0 mm 5 mps 759 mmHg 60%
    13:00 +33°C° 0 mm 4 mps 759 mmHg 58%
    14:00 +33°C° 0 mm 4 mps 759 mmHg 56%
    15:00 +33°C° 0 mm 4 mps 758 mmHg 54%
    16:00 +33°C° 0 mm 4 mps 758 mmHg 51%
    17:00 +32°C° 0 mm 4 mps 758 mmHg 60%
    18:00 +29°C° 0 mm 4 mps 758 mmHg 68%
    19:00 +28°C° 0 mm 4 mps 758 mmHg 76%
    20:00 +27°C° 0 mm 3 mps 758 mmHg 77%
    21:00 +26°C° 0 mm 3 mps 758 mmHg 78%
    22:00 +25°C° 0 mm 3 mps 758 mmHg 79%
    23:00 +25°C° 0 mm 3 mps 758 mmHg 76%
    Mostrar más